Terug naar catalogus

CZ-4 DEB

ActiefPO
NORAD 26128·DEBRIS·🇨🇳 China

Gelanceerd Oct 14, 1999 vanaf Taiyuan Satellite Launch Center

Loading…

Volgende Passages (komende 24 uur)

TLE

VersSource: Space-Track

Epoch: Sep 14, 2026, 13:22 UTC

1 26128U 99057Q   26257.55730316  .00005351  00000-0  33996-3 0  9998
2 26128  98.6654 115.6138 0020612  68.0808 315.4844 15.09200432429049

Volg CZ-4 DEB in realtime met AllMySat

Download on the App Store